Regional Weather Roundup
Issued by NWS

Home | Current Version | Previous Version | Graphics & Text | Print | Product List | Glossary On
Versions: 1 2 3 4 5 6 7 8 9 10 11 12 13 14 15 16 17 18 19 20 21 22 23 24 25 26 27 28 29 30 31 32 33 34 35 36 37 38 39 40 41 42 43 44 45 46 47 48 49 50
000
ASUS43 KOAX 311110
RWRNE

WEATHER ROUNDUP FOR NEBRASKA
NATIONAL WEATHER SERVICE OMAHA NE
600 AM CDT MON AUG 31 2015

NOTES: SATELLITE DATA IS BEING USED TO AUGMENT CLOUD COVER ABOVE
       12000 FEET.
       "FAIR" INDICATES FEW OR NO CLOUDS BELOW 12,000 FEET WITH NO
       SIGNIFICANT WEATHER AND/OR OBSTRUCTIONS TO VISIBILITY.

  * THESE STATIONS DO NOT REPORT WEATHER SUCH AS RAIN...SNOW OR FOG.

NEZ001>004-019>022-054>056-311200-
NEBRASKA PANHANDLE

CITY           SKY/WX    TMP DP  RH WIND       PRES   REMARKS
SCOTTSBLUFF    CLOUDY    67  54  63 MISG      29.92S
ALLIANCE       MOCLDY    65  50  58 SW3       29.92R
CHADRON        LGT RAIN  72  54  53 W5        29.89R
KIMBALL        CLOUDY    66  49  53 SW8       30.00R
SIDNEY         PTCLDY    60  48  64 W8        29.96R
$$

NEZ057>060-069>072-079>082-311200-
SOUTHWEST NEBRASKA

CITY           SKY/WX    TMP DP  RH WIND       PRES   REMARKS
NORTH PLATTE   CLEAR     57  54  89 VRB3      29.92S
IMPERIAL       CLEAR     58  50  75 CALM      29.92R
LEXINGTON      CLEAR     62  60  94 S6        29.92F
MCCOOK         CLEAR     59  54  83 CALM      29.91F
OGALLALA       CLEAR     56  48  75 CALM      29.93S
$$

NEZ005>010-023>029-035>040-094-311200-
NORTH CENTRAL NEBRASKA

CITY           SKY/WX    TMP DP  RH WIND       PRES   REMARKS
VALENTINE      CLEAR     68  49  50 S14       29.83S
AINSWORTH      PTCLDY    66  58  76 S16G23    29.85F
BROKEN BOW     CLEAR     63  60  90 SW3       29.92F
O`NEILL        CLEAR     66  64  94 S14       29.88F
ORD            CLOUDY    61  61 100 SE6       29.91F FOG
THEDFORD       CLEAR     65  55  72 S14       29.89F
$$

NEZ041-046>049-061>064-073>077-083>087-311200-
SOUTH CENTRAL NEBRASKA

CITY           SKY/WX    TMP DP  RH WIND       PRES   REMARKS
GRAND ISLAND   CLEAR     63  62  97 S7        29.94S
AURORA         CLEAR     64  64 100 S6        29.95R FOG
HASTINGS       CLEAR     62  61  96 S5        29.94S FOG
HEBRON         CLEAR     63  63  99 CALM      29.94F FOG
HOLDREGE       CLEAR     60  58  95 S5        29.93S FOG
KEARNEY *      MOCLDY    61  57  88 S3        29.94R VSB 1/2
YORK           CLOUDY    63  63 100 S5        29.95R FOG
$$

NEZ011>018-030>034-042>045-311200-
NORTHEAST NEBRASKA

CITY           SKY/WX    TMP DP  RH WIND       PRES   REMARKS
NORFOLK        CLEAR     65  63  93 S5        29.92F
ALBION         MOCLDY    61  59  94 SE6       29.94S FOG
BLAIR          FOG       65  63  94 S3        29.94S VSB 1/4
COLUMBUS *     CLEAR     63  57  82 CALM      29.94S
FREMONT        CLEAR     65  64  95 SE6       29.94S FOG
TEKAMAH        FOG       61  60  97 CALM      29.93F VSB 1/4
WAYNE          CLEAR     63  62  97 S5        29.93S FOG
$$

NEZ050>053-065>068-078-088>093-311200-
SOUTHEAST NEBRASKA

CITY           SKY/WX    TMP DP  RH WIND       PRES   REMARKS
LINCOLN        FOG       64  62  93 CALM      29.95S VSB 3/4
OMAHA EPPLEY   CLEAR     66  65  96 SE3       29.94S FOG
BEATRICE       CLEAR     65  64  97 SE6       29.95S FOG
FALLS CITY     FOG       65  65 100 SE3       29.95S VSB 3/4
NEBRASKA CITY  FOG       63  63  99 S3        29.96R VSB 1/4
PLATTSMOUTH    FOG       66  65  96 SE6       29.96R VSB 1/4
$$

NEZ044-045-051>053-067-311200-
OMAHA AREA

CITY           SKY/WX    TMP DP  RH WIND       PRES   REMARKS
OMAHA EPPLEY   CLEAR     66  65  96 SE3       29.94S FOG
BLAIR          FOG       65  63  94 S3        29.94S VSB 1/4
FREMONT        CLEAR     65  64  95 SE6       29.94S FOG
MILLARD        FOG       64  63  97 CALM      29.94S VSB 1
OFFUTT AFB     FOG       60  60 100 CALM      29.94R VSB 0
PLATTSMOUTH    FOG       66  65  96 SE6       29.96R VSB 1/4
WAHOO          FOG       61  60  97 SE3       29.94S VSB<1/4
$$



USA.gov is the U.S. government's official web portal to all federal, state and local government web resources and services.